This demonstration page uses our WeatherBlox Daily Observations layout. Learn more.

Left ArrowRight Arrow

38.89511, -77.03637

Hourly Observations for July 11, 2018

Temp ( °F °C ) Dew Point ( °F °C ) Humidity (%) Winds ( mph kmh ) Pressure ( in mb ) Visibility ( mi km ) Precip ( " mm )
12:52 am 00:52 Mostly Cloudy 82 27.8 66 18.9 58 58 Calm 29.91 1013 10 16 0.00 0.00
1:52 am 01:52 Mostly Cloudy 82 27.8 64 17.8 55 55 Calm 29.91 1013 10 16 0.00 0.00
2:52 am 02:52 Mostly Cloudy 82 27.8 63 17.2 53 53 NNW 9 15 29.90 1013 10 16 0.00 0.00
3:52 am 03:52 Mostly Cloudy 81 27.2 63 17.2 54 54 NW 6 9 29.89 1012 10 16 0.00 0.00
4:52 am 04:52 Mostly Cloudy 81 27.2 63 17.2 54 54 NNW 8 13 29.90 1013 10 16 0.00 0.00
5:52 am 05:52 Mostly Cloudy 78 25.6 65 18.3 64 64 N 8 13 29.92 1013 10 16 0.00 0.00
6:52 am 06:52 Mostly Cloudy 78 25.6 66 18.9 67 67 N 8 13 29.94 1014 10 16 0.00 0.00
7:52 am 07:52 Partly Cloudy 81 27.2 65 18.3 58 58 NNW 9 15 29.96 1014 10 16 0.00 0.00
8:52 am 08:52 Partly Cloudy 84 28.9 65 18.3 53 53 NNE 9 15 29.96 1015 10 16 0.00 0.00
9:52 am 09:52 Partly Cloudy 86 30 64 17.8 48 48 NNE 7 11 29.96 1015 10 16 0.00 0.00
10:52 am 10:52 Mostly Cloudy 88 31.1 63 17.2 43 43 VRB 3 6 29.96 1015 10 16 0.00 0.00
11:52 am 11:52 Mostly Cloudy 90 32.2 63 17.2 41 41 N 9 15 29.97 1015 10 16 0.00 0.00
12:52 pm 12:52 Mostly Cloudy 91 32.8 61 16.1 37 37 NNW 3 6 29.96 1015 10 16 0.00 0.00
1:52 pm 13:52 Mostly Cloudy 90 32.2 61 16.1 38 38 WNW 8 13 29.96 1015 10 16 0.00 0.00
2:52 pm 14:52 Partly Cloudy 91 32.8 60 15.6 35 35 VRB 6 9 29.95 1014 10 16 0.00 0.00
3:52 pm 15:52 Partly Cloudy 93 33.9 59 15 32 32 N 8 13 29.95 1014 10 16 0.00 0.00
4:52 pm 16:52 Partly Cloudy 93 33.9 60 15.6 33 33 N 13 20 29.95 1014 10 16 0.00 0.00
5:39 pm 17:39 Partly Cloudy 92 33.3 60 15.6 34 34 NNE 14 22 29.94 1014 10 16 0.00 0.00
5:52 pm 17:52 Partly Cloudy 92 33.3 59 15 33 33 N 15 24 29.96 1014 10 16 0.00 0.00
6:52 pm 18:52 Partly Cloudy 89 31.7 58 14.4 35 35 N 15 24 29.97 1015 10 16 0.00 0.00
7:52 pm 19:52 Mostly Cloudy 87 30.6 55 12.8 34 34 NNE 13 20 29.98 1015 10 16 0.00 0.00
8:52 pm 20:52 Mostly Cloudy 85 29.4 56 13.3 37 37 N 12 19 30.00 1016 10 16 0.00 0.00
9:52 pm 21:52 Mostly Cloudy 84 28.9 57 13.9 40 40 N 10 17 30.03 1017 10 16 0.00 0.00
10:52 pm 22:52 Mostly Cloudy 83 28.3 59 15 44 44 NNE 9 15 30.04 1017 10 16 0.00 0.00
11:52 pm 23:52 Partly Cloudy 81 27.2 59 15 47 47 NE 9 15 30.05 1018 10 16 0.00 0.00

Powered by AerisWeather